Вернуться в каталог

CZ-6A DEB

АктивенPO
NORAD 60622·DEBRIS·🇨🇳 China

Запущен Aug 6, 2024 с Taiyuan Satellite Launch Center

Loading…

Ближайшие Пролёты (ближайшие 24 часа)

TLE

СвежийSource: Space-Track

Эпоха: Sep 14, 2026, 07:09 UTC

1 60622U 24140X   26257.29820234  .00000938  00000-0  20825-3 0  9999
2 60622  89.0050 260.7785 0102897 330.7286  28.8179 14.53053654111487

Отслеживайте CZ-6A DEB в реальном времени с AllMySat

Download on the App Store